Theta_e
312 312 312 312 312 312 312 311 311 311 311 311 311 312 311 311 311 312 312 311 312 312 312 312 312 312 312 312 312 313 312 311 310 307 306 310 311 323 322 320 320 322 322 321 314 311 310 314 314 315 313 311 310 307 309 311 311 308 301 300 298 300 299 302 301 304 305 304 305 306 307 306 311 323 327 334 331 332 333 333 336 339 340 341 343 347 346 346
312 312 312 312 312 312 311 311 311 311 311 311 311 312 312 311 311 311 311 311 311 312 311 312 312 312 312 311 312 312 311 310 307 307 306 315 317 320 323 325 323 324 324 317 313 311 310 312 313 313 311 307 312 306 310 306 311 304 302 301 298 301 302 305 305 306 305 304 306 306 307 306 308 313 321 319 322 326 325 330 334 335 339 341 344 344 344 345
311 311 311 311 311 311 311 311 311 311 311 311 311 311 312 311 311 311 311 311 311 312 311 311 311 311 311 312 312 312 311 307 306 303 307 322 318 320 324 326 322 323 321 314 314 313 311 312 313 311 309 306 308 305 307 307 308 306 303 300 300 304 304 304 305 305 307 307 305 305 306 306 307 308 314 317 317 321 319 324 329 331 334 338 341 342 342 344
311 311 311 311 311 311 310 310 310 310 310 311 310 311 311 311 311 311 312 311 311 311 312 311 311 311 311 311 312 312 309 306 301 302 319 323 324 321 324 325 326 323 318 315 314 313 313 313 312 310 307 305 306 308 302 307 303 306 304 300 302 305 303 304 305 306 307 307 306 306 306 306 307 309 311 316 313 315 317 322 322 327 336 337 340 341 342 342
311 310 311 311 310 310 310 310 310 310 310 310 310 310 310 311 310 310 311 311 311 311 312 311 311 311 311 311 311 312 306 296 299 315 319 326 332 325 323 323 327 316 313 312 314 314 313 311 310 308 307 302 306 305 303 307 307 308 303 304 304 305 302 305 306 307 306 307 306 306 304 304 309 312 312 317 309 310 314 320 325 333 341 339 339 340 341 341
310 310 310 310 310 310 310 310 309 310 310 310 309 310 311 311 310 310 310 310 311 310 310 310 311 310 311 311 310 310 303 289 303 313 324 329 331 331 323 323 327 313 311 310 309 311 310 309 308 305 303 302 303 301 303 306 308 301 305 304 306 306 303 307 306 306 306 306 305 305 306 307 306 306 309 316 309 314 321 321 327 334 342 341 342 340 339 340
310 310 309 309 309 310 310 310 309 310 310 310 310 310 310 310 310 310 311 310 310 311 310 310 310 310 310 311 310 306 300 299 304 313 329 319 325 330 326 325 322 312 310 307 308 309 309 308 306 304 303 302 303 302 304 304 307 303 301 305 305 306 305 307 306 307 307 306 305 307 307 304 305 304 310 312 312 325 327 327 332 340 342 341 339 340 338 339
310 309 309 309 309 309 309 310 310 310 310 310 309 309 310 311 311 310 310 311 311 310 310 310 310 310 310 307 304 299 297 297 304 307 319 326 316 329 327 320 315 311 308 306 308 307 308 306 304 305 302 300 302 302 304 304 305 301 300 304 304 305 306 307 307 306 306 306 308 307 304 304 305 305 307 310 317 327 329 334 337 340 341 340 339 338 339 339
309 309 309 309 309 309 309 309 310 311 309 310 310 310 310 310 310 310 309 309 310 310 310 310 310 310 310 307 301 295 295 304 307 308 316 319 319 321 321 318 316 308 307 308 309 309 308 306 305 306 300 300 304 302 305 302 299 302 302 304 304 304 306 306 306 306 306 307 307 304 304 305 306 306 306 313 325 331 335 337 338 341 338 338 338 339 340 339
309 309 309 309 308 309 309 309 310 310 310 309 309 309 310 310 310 309 309 309 309 310 310 309 309 309 307 304 300 292 299 305 313 318 321 320 320 321 317 315 313 308 306 307 308 308 306 306 305 307 305 303 304 302 306 303 301 306 303 304 304 305 305 306 305 306 307 306 307 304 303 304 306 304 303 315 324 333 335 335 339 339 338 337 338 340 340 340
308 308 309 308 309 309 309 309 309 310 310 310 308 308 309 310 309 309 309 309 309 309 309 309 310 308 305 305 298 292 303 309 318 321 321 320 319 318 315 314 311 308 308 308 307 309 308 308 308 308 304 301 304 302 304 304 306 305 305 304 304 305 306 306 306 305 307 305 307 305 303 305 305 304 307 316 331 334 332 334 335 336 336 337 338 339 338 340
308 308 308 308 308 309 309 309 309 309 309 310 309 308 308 309 309 309 309 309 309 309 309 308 308 308 306 302 298 297 312 315 315 314 317 320 318 317 317 316 311 309 309 307 308 310 309 308 308 306 298 306 299 303 303 307 305 305 304 300 302 304 302 305 304 305 306 304 306 306 304 302 303 305 320 328 332 333 330 331 333 333 334 336 337 337 336 337
308 308 308 308 308 308 309 309 309 309 309 309 309 308 308 308 308 308 309 308 308 309 308 308 308 307 303 297 301 307 308 310 311 311 309 315 317 317 316 316 313 311 311 310 308 310 310 310 308 303 305 304 302 299 304 306 305 305 304 301 301 300 299 303 305 305 304 305 305 305 296 300 302 305 311 325 329 331 328 327 331 332 333 334 336 334 336 337
307 307 307 308 308 309 309 309 309 308 308 308 308 308 308 308 308 308 308 308 308 309 309 308 308 306 302 297 303 307 308 310 308 305 305 307 307 309 314 315 314 312 312 311 310 311 311 311 308 306 309 305 303 307 303 304 305 298 301 302 298 297 296 303 304 305 302 305 304 305 298 300 303 309 310 321 329 327 323 324 330 332 332 333 335 333 334 336
307 307 307 308 308 308 309 309 308 308 308 308 308 308 307 307 307 308 308 308 308 308 307 308 308 303 299 299 308 310 316 312 306 304 305 304 303 303 307 313 311 312 312 312 311 312 311 310 308 304 303 308 308 302 300 301 301 300 296 294 298 297 298 302 304 304 301 303 305 303 299 301 307 311 313 317 328 327 322 325 327 331 332 333 332 332 332 334
307 307 308 308 308 308 308 308 307 307 308 308 307 307 307 307 307 307 308 308 308 307 307 305 304 303 299 294 301 316 311 303 302 306 307 305 304 302 309 311 311 311 310 310 313 311 310 309 304 305 304 306 303 299 298 298 298 300 297 295 295 297 298 298 302 305 305 304 304 303 299 302 306 313 317 319 325 325 322 324 328 330 331 332 332 333 332 333
307 307 308 308 308 307 307 307 307 307 307 307 307 307 307 307 307 307 307 307 306 307 307 300 303 305 292 304 308 299 300 306 309 307 306 307 304 306 311 310 308 309 311 311 311 310 308 306 307 304 306 302 302 300 295 293 294 295 298 296 297 295 298 296 301 303 304 304 300 303 301 306 309 314 317 321 324 323 320 326 327 328 329 330 330 331 332 332
307 307 307 307 307 307 307 307 306 306 306 307 307 307 305 306 307 307 307 307 307 306 306 308 305 302 297 304 295 299 304 303 305 306 308 308 305 308 309 309 309 309 309 307 308 305 307 302 306 299 302 302 300 299 294 290 294 294 294 296 296 298 298 297 296 300 302 303 301 302 304 307 310 313 316 319 323 321 321 324 326 327 329 329 329 329 331 331
307 307 307 307 307 306 306 307 306 306 306 307 307 308 307 306 308 307 304 303 300 298 293 295 298 287 288 298 302 302 303 306 308 307 305 306 305 308 310 312 310 307 303 302 301 303 304 302 303 298 295 297 299 299 297 297 298 297 296 297 296 295 296 297 300 302 303 300 301 301 302 307 311 312 316 318 322 322 324 327 327 327 328 328 328 330 330 330
307 307 306 306 306 306 306 306 305 305 306 305 305 303 304 298 301 297 301 302 297 298 295 299 300 297 298 300 301 305 307 306 302 304 307 308 306 305 308 308 307 306 303 298 299 302 303 297 294 294 296 298 301 301 300 301 300 299 298 297 297 296 297 300 300 302 304 301 301 301 307 309 311 313 315 318 320 320 322 324 324 325 325 326 328 330 331 332
306 306 306 306 306 306 306 306 306 305 306 306 303 299 293 295 293 292 296 297 301 301 300 300 301 298 297 302 304 302 299 301 303 305 307 310 307 305 303 305 302 299 300 300 299 303 301 295 295 298 300 300 301 302 303 300 300 298 297 297 296 297 296 299 300 302 304 304 303 306 307 309 311 313 315 317 318 316 319 321 323 323 324 326 328 328 329 332
306 306 306 306 306 306 306 306 306 306 305 305 302 296 297 298 302 303 301 294 300 301 300 299 301 299 302 302 304 304 300 297 299 303 309 308 304 300 302 303 301 297 300 300 300 298 294 293 297 299 302 303 302 302 303 300 298 299 297 297 296 297 299 300 300 302 302 303 301 305 305 308 310 313 315 316 316 318 319 320 320 322 322 322 325 326 328 330
305 306 306 306 305 306 306 306 305 304 305 301 298 298 298 303 305 307 305 299 296 302 301 299 295 295 297 301 302 303 295 294 295 301 305 306 301 302 303 301 300 300 299 299 295 295 291 294 299 301 302 302 301 302 302 300 300 298 297 296 294 298 296 293 299 302 304 303 302 305 305 308 312 313 314 316 317 318 319 319 320 321 321 321 323 324 324 324
305 305 306 305 306 305 305 305 304 304 302 301 299 299 304 306 307 306 301 294 293 299 301 302 301 299 297 296 302 300 294 295 297 299 308 304 299 304 303 302 300 299 296 298 297 295 293 297 302 302 303 302 299 300 299 298 296 299 298 297 296 297 297 298 297 301 303 306 307 305 304 305 310 308 310 315 318 317 318 319 320 321 322 323 324 324 325 324
305 305 305 305 305 305 304 303 300 301 303 302 300 304 305 306 308 306 300 297 297 296 305 303 304 302 303 307 306 297 297 297 298 302 307 305 301 303 302 305 301 296 297 298 298 296 296 300 303 301 300 299 299 297 298 298 295 297 299 298 298 299 298 299 300 300 300 300 305 302 293 297 307 308 309 313 314 314 317 316 317 319 321 322 322 324 325 326
305 305 305 305 305 304 304 298 301 302 299 298 302 306 307 308 307 306 300 291 286 296 299 293 305 297 308 301 302 299 299 293 299 302 307 306 309 305 304 301 302 295 297 297 296 298 298 303 302 299 298 298 298 297 299 300 296 295 296 300 299 299 299 300 299 299 295 293 301 306 294 291 304 305 308 311 311 312 315 315 316 318 319 320 320 321 322 324
305 305 305 305 304 304 298 296 304 301 297 299 304 308 307 307 308 305 293 287 283 295 293 300 298 299 304 302 301 301 287 291 301 302 305 308 303 310 300 299 300 301 300 300 296 293 300 300 299 300 298 297 297 295 299 299 297 294 300 300 299 298 298 299 300 299 298 301 303 302 299 294 296 303 309 311 311 311 311 313 315 317 318 319 320 320 321 321
305 305 305 305 304 303 299 300 299 297 298 303 307 307 307 307 306 304 292 277 277 297 292 295 298 307 303 303 302 296 295 300 294 298 305 307 307 305 302 299 298 298 299 297 288 298 300 298 298 297 297 296 295 298 300 301 297 298 300 300 298 298 298 299 299 298 300 298 294 298 301 295 295 303 309 310 307 308 308 311 313 316 317 318 318 319 319 320
304 304 304 304 304 304 305 301 298 296 302 305 306 306 306 307 304 295 287 276 295 293 305 294 307 301 301 302 298 297 299 301 294 299 305 307 308 305 298 301 301 300 300 297 293 298 300 301 300 300 297 295 298 301 301 300 297 299 301 301 300 299 299 299 298 298 298 295 290 295 299 293 295 303 305 309 307 306 307 311 312 313 313 314 315 316 317 318
303 304 304 304 304 302 302 304 300 303 305 305 305 305 306 303 297 286 280 274 297 286 295 297 296 294 299 295 295 296 296 298 300 301 303 301 303 306 305 307 301 299 297 299 297 299 300 304 305 301 298 300 300 302 302 301 301 302 300 297 297 297 298 299 299 299 296 289 293 296 299 297 291 300 303 303 306 308 309 310 312 312 313 313 313 313 314 314
303 303 303 304 299 300 301 296 301 304 304 305 306 304 303 298 289 282 274 284 291 293 298 294 293 299 295 293 290 294 295 299 299 300 298 302 300 302 302 299 303 298 297 296 295 299 300 301 300 301 304 303 303 300 302 303 302 300 297 296 295 294 297 297 297 299 289 287 295 298 297 299 289 297 305 308 309 310 311 309 309 310 310 311 311 312 313 313
303 303 304 303 303 304 296 296 303 305 305 305 303 299 297 285 289 279 279 296 283 289 291 291 296 296 295 296 293 292 293 297 299 298 296 296 296 296 296 293 296 290 289 291 291 298 296 297 301 302 305 303 300 298 298 300 300 299 297 295 290 288 289 285 291 286 287 288 296 298 299 295 296 302 306 308 309 311 312 311 310 309 309 309 309 310 312 312
303 303 304 303 303 301 301 303 304 304 305 304 300 298 289 283 276 284 286 290 285 293 292 297 294 295 295 293 291 293 297 293 299 298 298 298 296 297 299 298 298 296 287 293 293 292 294 299 299 300 301 303 302 294 294 294 297 297 295 293 289 285 284 282 287 289 290 294 297 298 299 294 301 303 308 307 310 311 311 311 311 310 309 308 308 309 309 309
303 303 303 303 303 303 303 305 304 304 302 301 296 295 288 280 280 291 287 288 287 296 296 295 295 296 295 290 292 293 291 297 297 296 297 295 296 294 296 298 299 296 296 294 290 291 286 288 294 297 294 302 301 299 298 296 296 296 299 296 292 291 287 281 287 283 287 290 294 300 295 294 296 298 309 309 310 311 311 311 310 310 309 309 309 310 308 308
303 304 304 303 303 304 305 304 305 305 301 297 293 289 281 280 286 286 287 289 293 295 292 298 294 294 292 293 294 294 295 292 298 296 295 294 292 294 294 295 298 299 297 290 294 292 291 291 297 301 301 302 299 302 302 299 297 298 298 299 294 292 297 289 291 291 291 290 290 294 293 301 298 308 309 310 310 310 310 309 308 307 309 309 308 307 307 307
302 302 303 301 301 303 305 304 305 303 299 294 289 284 282 286 285 290 290 295 293 290 293 295 295 291 290 291 294 293 298 294 295 296 294 295 295 294 297 298 297 299 296 291 294 289 292 290 298 299 301 300 300 302 301 302 289 295 296 292 295 301 298 291 290 298 292 290 288 296 296 301 306 308 308 309 309 309 309 307 306 306 307 308 306 307 307 308
298 301 298 302 302 306 306 305 304 301 298 294 289 283 289 290 293 292 295 292 293 294 293 289 288 291 288 288 290 293 294 297 295 294 290 296 293 296 296 298 301 299 300 298 294 299 290 291 298 297 295 300 303 302 302 301 301 297 291 296 301 303 301 295 287 288 288 286 287 295 293 295 297 293 308 306 305 306 307 307 306 306 308 307 305 305 306 307
298 298 300 300 304 307 307 306 304 300 296 292 285 287 294 289 295 294 297 295 294 294 292 291 291 294 290 289 288 292 294 292 292 294 291 294 290 300 297 297 300 300 301 302 296 295 298 289 294 297 298 299 302 302 299 301 302 297 295 302 294 289 289 296 292 283 284 284 287 292 296 297 297 299 303 302 302 303 306 306 306 305 305 304 304 305 307 307
298 297 294 302 307 308 307 305 302 297 294 289 287 285 291 292 296 294 295 296 294 291 289 292 291 293 293 291 292 294 294 290 293 292 290 292 289 297 297 299 297 301 301 301 297 298 299 290 291 298 297 299 300 299 290 295 300 301 301 298 300 298 294 290 291 293 291 286 286 286 293 290 300 303 304 303 303 303 304 305 304 304 304 304 304 304 304 305
297 294 294 303 307 308 307 304 299 297 291 285 288 289 294 291 294 296 296 295 293 292 291 292 293 291 293 293 295 292 295 295 293 293 293 294 293 298 297 300 298 299 301 302 298 300 292 300 287 294 299 298 292 296 294 295 293 294 295 294 296 298 300 298 298 293 290 287 287 287 285 292 302 308 307 306 305 305 306 304 304 303 303 303 303 303 303 304
298 292 295 304 305 307 304 300 294 290 289 292 293 291 292 291 294 294 296 297 294 297 292 291 293 291 293 292 293 296 294 295 294 293 294 293 295 289 299 299 300 298 301 300 298 299 293 294 289 293 293 292 294 299 300 298 298 296 295 294 295 294 292 289 286 295 295 291 287 288 286 295 304 310 308 308 308 307 308 306 304 303 303 303 302 303 304 304
293 289 293 304 306 305 299 291 291 293 291 288 289 291 290 295 292 291 293 295 294 292 296 293 295 294 293 293 295 294 295 293 295 295 295 293 296 296 298 302 301 301 298 295 296 301 302 298 295 290 292 294 299 301 303 303 301 299 298 295 297 297 297 292 285 289 295 295 296 295 289 292 306 309 310 309 308 308 308 308 304 303 302 302 302 303 304 304
293 292 302 305 305 303 298 288 292 291 290 293 296 294 295 293 291 291 291 293 290 293 293 293 294 293 295 294 294 294 295 294 295 293 295 296 299 303 302 303 304 301 300 298 299 301 302 295 291 293 296 298 301 302 302 303 301 298 298 299 297 295 296 295 294 296 291 293 291 291 287 293 303 308 309 308 307 307 308 307 303 302 301 301 302 302 303 303
294 294 296 302 305 303 295 285 286 288 291 294 293 292 293 291 291 289 290 291 290 292 292 294 295 296 294 296 295 294 297 291 296 295 295 298 298 305 304 306 303 299 298 298 296 302 293 297 294 289 289 292 294 297 297 299 300 297 297 301 300 299 299 299 299 299 291 293 293 290 285 292 298 303 303 302 302 302 302 303 304 301 301 300 301 301 302 302
294 298 297 298 303 300 291 294 291 288 291 291 291 288 289 289 291 291 290 289 294 294 294 293 295 297 295 297 295 298 298 296 294 299 297 299 301 305 306 306 304 300 301 305 305 304 296 297 295 286 283 281 281 283 286 290 294 301 300 299 301 299 299 297 291 294 289 294 296 291 291 294 297 300 300 300 299 299 300 300 302 302 301 300 300 300 300 301
292 286 292 295 298 298 298 301 298 293 291 291 288 289 289 287 290 292 291 290 293 295 296 295 295 296 294 296 295 295 296 298 295 295 296 295 301 304 306 307 303 304 308 308 304 305 299 301 300 297 291 289 291 295 301 298 298 294 297 298 298 301 301 301 298 292 289 294 292 295 298 293 292 294 295 296 297 296 296 298 298 298 299 299 299 299 299 299
294 289 289 287 295 296 295 296 296 296 290 294 285 289 287 288 289 291 295 290 294 293 294 294 295 294 295 295 294 294 295 295 298 296 297 300 304 305 307 306 306 307 305 304 308 303 301 296 298 298 297 296 297 297 299 299 297 298 297 297 298 300 303 300 292 291 298 294 289 301 299 294 294 295 295 295 296 296 297 297 297 297 298 298 298 299 299 300
288 294 296 298 290 287 289 290 295 294 296 294 290 296 292 290 290 288 294 296 295 296 292 294 295 296 297 296 296 293 294 294 297 295 301 302 302 305 303 306 304 305 304 302 307 303 298 292 297 299 296 298 299 299 301 300 300 300 299 299 299 300 301 297 301 303 299 292 290 301 301 298 296 296 296 295 295 295 295 296 297 298 297 298 298 298 298 299
295 296 298 301 292 296 293 296 296 295 295 295 294 295 292 292 291 293 293 293 293 293 294 288 293 296 297 298 296 296 295 292 292 301 300 301 302 301 299 301 303 305 304 303 304 307 301 295 298 299 296 297 298 299 299 298 298 298 298 300 301 301 301 301 301 303 303 302 304 302 301 297 297 296 295 295 296 295 295 297 297 296 295 296 296 296 296 297
289 292 290 298 298 297 298 297 297 295 294 296 291 294 294 293 291 294 294 293 290 292 297 294 294 297 298 298 298 296 299 300 300 294 303 302 301 303 300 301 299 303 303 302 303 304 303 292 298 299 296 294 297 298 298 299 298 296 297 299 299 300 300 301 302 302 303 303 302 298 292 288 292 294 293 295 295 295 295 294 294 295 295 295 295 295 296 296
297 298 297 294 293 297 297 297 296 295 293 295 294 297 295 294 293 295 294 296 295 293 295 294 296 299 300 300 299 297 298 303 303 303 304 303 297 303 300 300 302 299 301 301 303 303 302 293 299 298 291 291 296 297 297 298 297 295 294 296 297 298 296 297 296 299 301 298 297 296 291 286 289 293 293 294 294 293 293 293 293 294 295 294 294 295 296 296
300 302 300 296 291 295 296 297 298 295 290 296 297 296 295 294 295 295 290 296 297 297 296 298 299 301 300 299 296 298 302 303 303 303 303 304 304 303 304 303 303 301 300 302 304 299 300 296 293 294 291 288 294 298 297 297 295 291 289 291 295 296 297 297 299 301 302 301 295 292 294 292 291 293 291 291 292 292 292 292 293 293 294 294 294 294 295 296
Wind_Speed
11 11 11 11 11 11 11 10 11 10 8 10 9 10 11 10 12 11 12 11 12 12 12 12 12 12 13 13 13 14 13 12 13 10 12 13 2 11 10 2 15 11 9 8 11 14 14 13 12 10 8 7 6 7 8 7 5 6 7 7 8 6 7 5 6 4 6 2 6 7 8 8 3 2 4 3 5 8 8 8 8 8 8 6 9 13 16 15
11 11 10 11 11 11 10 10 11 11 11 10 9 8 11 9 10 12 12 11 12 12 11 12 12 12 13 13 13 12 13 12 12 14 21 3 11 10 9 5 14 12 10 10 14 14 14 14 12 13 9 8 6 6 9 7 7 8 7 8 7 7 1 2 2 3 2 6 6 6 7 8 6 5 3 6 7 9 8 7 7 8 7 7 10 14 14 14
11 11 11 11 12 12 12 10 10 8 9 11 11 10 10 10 10 11 12 11 11 13 11 11 12 12 12 12 13 11 13 12 11 16 11 10 14 11 11 11 15 14 12 10 11 11 11 12 12 12 9 8 7 6 10 7 9 10 7 7 9 4 1 2 1 1 3 6 5 7 6 6 5 4 2 4 8 7 7 6 6 6 8 9 11 13 14 13
10 10 11 11 11 11 12 12 13 11 9 11 10 10 11 11 10 10 12 12 11 12 11 11 12 12 12 12 11 12 10 11 10 7 9 6 7 11 13 13 13 15 11 8 9 10 7 9 12 12 8 9 7 6 10 8 8 7 8 8 5 3 6 5 5 4 3 4 6 6 6 3 5 5 4 5 8 5 6 5 5 7 10 12 12 13 13 12
10 10 10 10 10 10 11 11 11 12 12 10 10 11 11 11 11 11 11 11 10 11 12 11 12 12 12 12 12 10 8 7 1 10 7 1 2 9 14 13 13 16 13 8 8 9 8 11 12 11 8 8 7 9 10 10 10 3 11 10 5 2 7 2 2 2 2 3 7 6 6 5 5 2 1 5 3 7 5 5 4 7 10 13 14 13 12 13
11 10 10 11 11 11 12 12 12 11 11 12 11 9 11 11 10 10 12 11 11 12 11 11 11 12 12 11 12 8 6 6 4 5 5 6 4 6 14 16 14 15 14 11 11 10 12 12 12 10 9 9 9 10 10 10 11 8 10 11 8 7 6 4 3 2 4 5 6 7 5 7 4 2 1 1 6 8 4 3 3 7 9 11 13 13 13 12
10 11 10 11 12 12 12 12 12 12 10 10 9 11 12 11 10 10 11 11 11 11 11 10 10 12 10 12 9 7 10 10 2 7 5 5 4 9 15 17 16 14 15 13 13 13 15 14 14 11 10 10 10 11 9 11 11 12 7 9 12 10 9 6 6 4 6 6 7 6 7 7 4 4 3 2 4 4 2 1 4 9 9 12 13 12 13 12
10 10 11 12 13 13 11 11 13 12 10 11 11 10 10 11 12 10 10 12 11 12 11 10 9 9 7 9 6 7 11 12 11 3 10 4 3 11 15 14 16 15 16 18 17 16 15 15 15 11 10 10 8 12 9 11 12 12 12 6 7 7 7 6 6 6 5 7 8 5 7 4 2 2 4 5 2 2 3 3 7 9 10 11 12 12 12 11
10 11 12 12 12 13 13 11 12 13 11 9 9 11 11 10 11 11 11 11 12 11 11 10 10 8 2 8 6 9 11 15 10 10 9 8 1 9 14 11 15 16 16 16 16 15 15 14 15 12 9 12 9 12 10 11 10 13 13 10 8 8 7 6 6 7 7 5 6 5 6 1 1 2 3 5 3 2 3 6 8 9 9 11 11 11 10 10
11 11 12 13 12 12 13 12 11 12 12 12 11 9 10 11 10 11 11 11 11 12 10 9 9 7 8 6 7 9 1 4 2 3 5 2 5 10 12 8 16 17 16 17 16 16 17 12 16 13 7 10 6 10 10 13 2 10 14 12 10 8 7 6 8 6 5 7 7 7 4 5 4 6 7 3 4 5 5 7 8 8 9 9 10 9 9 9
12 12 12 13 13 12 13 13 12 11 11 12 12 11 9 12 13 10 10 10 11 11 10 10 8 8 8 5 9 9 4 3 3 2 4 1 4 8 9 8 14 15 17 16 17 17 16 11 12 4 4 7 8 9 11 10 6 3 8 11 12 10 9 8 9 8 6 8 6 7 6 4 5 7 4 9 6 6 7 8 9 8 9 9 9 9 9 9
13 13 12 13 13 12 12 13 12 12 11 12 12 11 11 10 12 13 11 10 11 11 10 7 8 6 7 8 9 9 5 2 2 4 4 0 2 2 2 6 12 15 16 16 17 15 14 9 9 10 6 6 9 5 11 10 9 5 5 8 10 10 10 11 11 9 7 6 5 5 7 8 9 5 9 7 4 5 5 7 8 8 8 9 9 8 8 9
13 13 13 13 13 13 12 12 12 12 11 11 12 11 12 13 12 12 11 11 10 9 9 8 6 5 6 9 14 20 11 5 4 7 6 3 0 4 3 6 11 13 14 13 15 14 10 6 11 14 6 7 8 5 4 12 9 9 7 8 6 8 10 12 10 7 7 4 2 6 8 10 10 9 5 3 4 4 5 7 7 7 7 7 7 7 8 8
14 13 13 13 13 13 12 11 12 12 11 11 12 12 11 12 13 13 13 12 11 10 9 8 7 5 6 10 7 3 8 8 10 13 16 10 8 3 2 5 8 9 9 11 11 8 7 6 10 13 3 9 7 7 8 9 7 10 10 8 8 9 10 14 10 11 11 6 6 9 7 11 9 8 5 5 4 5 5 7 7 6 5 6 7 6 7 8
13 14 13 12 12 12 12 12 11 12 13 13 11 13 12 13 12 13 13 12 10 9 7 6 6 5 6 9 11 16 17 10 11 17 13 11 13 9 6 8 9 9 9 7 6 6 5 6 9 11 9 7 1 10 7 9 9 9 10 10 9 8 10 12 9 11 12 8 9 8 10 10 9 8 6 4 5 4 5 6 7 6 4 5 6 7 6 5
14 13 13 12 12 12 12 12 12 12 12 12 13 13 13 14 14 14 15 13 11 7 7 7 6 8 8 12 1 7 6 10 16 18 11 9 11 9 7 10 9 8 9 6 3 5 6 8 11 9 9 10 11 9 9 8 9 11 10 10 11 10 9 10 11 10 6 8 9 12 6 11 9 8 7 5 6 4 7 7 6 6 5 5 6 6 5 6
14 12 12 12 11 11 11 11 11 12 11 11 13 12 13 14 16 16 15 12 8 7 6 3 4 5 6 3 1 7 10 13 2 3 11 12 11 8 10 12 9 11 8 7 5 7 8 9 8 9 10 10 11 11 10 11 11 10 11 8 9 14 8 10 13 8 10 10 12 13 5 11 9 9 8 5 4 6 7 7 7 6 5 5 5 6 6 5
13 12 12 12 11 11 11 12 12 12 12 12 12 14 13 15 13 6 7 9 6 5 5 5 4 6 13 17 9 4 2 5 7 6 7 9 12 10 11 11 11 12 10 10 5 11 10 9 9 9 9 12 14 13 13 13 11 11 12 9 10 12 11 11 12 12 11 11 13 11 6 9 9 9 9 8 3 4 5 6 7 6 6 5 4 5 5 4
12 12 12 12 12 12 12 11 11 10 10 9 15 17 14 12 5 4 7 10 10 6 5 9 9 8 3 3 16 7 6 4 2 6 9 11 12 12 10 9 11 15 12 10 9 12 11 8 9 12 15 15 14 15 12 9 12 11 14 8 10 10 8 7 10 9 11 14 12 13 9 9 9 10 9 8 7 6 6 5 6 6 6 6 4 5 4 4
13 12 12 11 11 11 12 12 11 9 10 10 7 4 2 3 5 5 7 11 14 11 3 6 17 10 2 5 6 3 5 5 8 9 9 11 13 14 12 12 13 12 12 11 14 13 12 12 14 15 14 15 15 15 14 3 8 10 13 10 11 11 12 8 9 7 6 11 4 9 9 9 10 9 8 7 7 7 7 6 4 5 7 6 6 4 5 4
13 11 12 11 10 11 11 11 9 6 5 9 8 6 5 3 7 6 10 12 16 16 14 8 17 16 10 6 3 6 1 10 9 6 11 12 14 17 13 14 14 13 13 12 12 10 12 13 15 16 15 17 17 15 11 7 9 12 12 12 11 12 11 11 10 7 3 5 7 8 9 10 9 8 7 6 7 9 8 7 7 6 5 6 5 4 4 3
12 12 12 11 12 12 12 11 10 7 6 8 8 8 7 7 5 5 6 8 16 23 20 18 10 14 15 15 5 3 5 4 10 9 10 15 16 16 14 14 17 14 14 13 12 11 14 16 14 16 14 15 15 15 11 9 11 11 10 11 10 11 11 10 8 5 6 6 9 10 9 9 9 8 8 8 8 8 8 8 7 6 6 6 5 6 4 4
11 12 12 11 12 12 11 10 7 6 9 8 8 10 10 5 3 5 5 9 13 13 18 18 18 20 19 12 10 5 8 9 9 14 12 15 17 16 17 15 15 13 16 16 14 13 13 14 15 17 14 15 15 15 13 10 10 10 11 12 11 11 11 11 7 8 7 5 10 11 9 8 9 9 9 7 7 9 10 10 10 8 8 7 6 4 4 5
11 12 12 11 12 13 13 10 10 12 9 10 11 11 4 2 4 6 7 7 7 8 15 17 19 18 18 14 8 13 12 8 9 11 14 15 16 15 15 17 18 15 15 18 16 13 12 11 15 14 13 16 15 16 16 12 11 11 11 10 13 13 11 11 10 9 7 4 11 13 8 7 6 7 7 6 7 9 10 11 11 9 9 9 8 6 6 5
11 11 11 11 11 12 10 12 9 6 4 6 10 9 8 7 5 5 7 7 9 8 11 12 11 13 12 9 8 11 13 11 11 6 14 16 18 15 14 13 12 14 15 18 15 13 13 12 15 17 17 17 17 15 17 14 11 11 11 12 10 14 8 12 15 13 8 8 11 16 9 8 7 7 6 7 8 10 9 10 10 10 10 9 10 10 8 7
10 11 11 11 11 11 10 9 4 2 4 7 4 3 3 3 4 4 6 5 8 5 8 10 11 9 10 13 11 10 8 12 14 9 11 15 14 13 11 12 10 14 16 17 14 8 10 13 16 18 18 19 19 15 18 17 11 11 12 8 6 15 10 13 14 12 10 9 13 8 9 9 8 7 7 7 10 12 10 10 11 10 10 10 9 9 9 8
10 11 11 11 11 8 6 2 6 4 6 3 5 3 2 2 4 5 4 6 9 7 9 7 12 7 9 15 16 13 11 11 11 13 12 15 16 13 13 11 10 7 11 9 8 11 11 17 17 18 18 18 16 15 17 19 11 10 13 14 7 7 11 13 12 10 8 4 11 10 7 8 11 7 7 8 11 12 11 10 10 10 11 12 12 12 11 10
11 11 12 11 10 6 7 8 9 8 7 3 1 1 4 4 5 4 6 5 4 3 7 6 4 6 9 16 19 17 4 16 13 15 14 15 15 13 13 15 14 13 13 12 13 8 13 16 19 20 19 15 15 14 15 17 11 7 12 13 11 9 10 11 11 10 7 9 11 13 10 8 10 8 9 9 11 11 11 10 11 11 12 13 13 12 12 12
9 11 12 12 9 10 9 9 9 10 4 2 3 5 3 6 6 5 4 7 3 3 3 9 6 8 6 15 18 18 8 14 11 16 15 15 16 9 13 16 14 13 14 15 11 9 10 16 18 18 16 15 14 15 16 17 13 8 7 8 8 6 5 8 9 10 6 9 10 14 13 10 10 9 8 7 8 10 10 10 10 10 11 11 10 10 11 10
10 10 11 10 9 9 8 9 11 9 6 5 6 6 7 4 6 5 5 7 4 3 2 5 10 12 13 16 15 19 13 11 5 17 17 15 18 9 10 10 14 13 14 14 13 12 11 15 17 14 16 13 14 11 15 18 9 10 9 10 7 8 8 6 7 9 9 8 11 16 14 10 10 11 9 9 6 9 9 9 9 8 10 10 10 10 9 10
12 12 11 10 9 6 6 7 8 6 6 3 5 8 5 5 6 6 8 2 1 5 2 8 9 12 16 18 14 18 14 12 12 19 16 16 17 14 9 11 12 11 11 12 15 11 10 14 15 12 14 11 12 11 11 14 8 13 10 11 10 9 8 7 8 8 8 10 10 11 15 8 11 9 6 6 7 6 9 10 10 10 10 9 8 8 9 10
12 12 12 10 9 8 8 4 5 3 5 3 7 6 6 5 7 7 3 4 6 4 5 5 8 10 16 17 14 17 14 13 14 18 18 16 16 16 15 13 14 16 14 15 14 13 14 14 12 13 9 13 14 12 10 8 10 13 12 12 13 11 8 10 11 11 11 9 10 10 9 9 4 7 10 11 9 9 9 9 11 10 10 10 9 10 9 9
11 11 13 12 12 10 12 12 7 5 6 8 7 6 7 7 8 9 7 3 1 4 5 9 6 12 13 17 16 20 16 14 17 17 20 19 16 15 18 14 17 13 13 16 14 13 11 15 17 12 13 13 14 14 13 13 14 15 15 15 15 13 12 11 15 8 11 6 6 9 9 5 9 9 10 10 10 11 11 12 11 11 10 10 9 9 9 10
12 13 11 10 10 11 10 9 9 9 7 5 6 7 8 8 7 0 9 2 0 5 8 5 4 7 14 13 15 18 15 14 19 17 20 17 18 16 16 17 19 15 11 15 14 14 12 17 16 17 12 16 16 15 13 11 14 13 13 15 14 11 10 11 13 14 14 10 7 5 11 8 13 8 12 13 12 11 10 11 10 10 10 9 9 10 10 10
12 13 13 11 11 12 13 13 11 10 7 6 6 9 9 9 6 6 6 1 3 6 7 5 6 7 14 14 15 19 13 13 19 20 19 18 16 15 16 15 20 16 13 13 12 9 17 9 12 17 10 17 16 15 13 15 12 12 11 12 14 14 9 11 3 10 12 10 9 3 1 5 5 12 13 12 12 11 11 10 10 9 8 8 9 10 10 9
12 9 7 9 9 8 8 8 11 10 9 7 8 9 11 8 5 4 1 2 4 4 8 9 8 8 12 13 16 19 13 9 19 17 16 18 17 16 17 13 16 19 13 12 11 11 13 11 17 18 10 18 18 15 13 14 11 12 11 13 10 9 13 4 3 7 5 8 5 3 6 6 9 8 12 12 11 13 11 9 9 9 8 9 9 9 9 9
8 8 8 7 8 5 6 9 10 11 9 9 9 10 10 7 6 0 4 2 2 5 7 5 11 8 13 13 13 19 12 12 18 15 14 18 16 17 17 15 16 19 15 12 10 9 11 10 17 16 14 15 19 16 14 16 10 9 12 12 6 5 7 8 9 3 9 11 5 9 10 9 11 7 12 12 11 11 10 10 9 9 8 10 10 8 8 8
8 7 9 11 9 6 9 11 14 11 8 8 9 11 5 9 5 1 5 5 4 5 5 6 6 8 13 13 16 18 13 12 17 15 14 16 9 16 17 14 20 17 16 15 7 10 9 10 11 17 15 11 7 14 14 11 8 12 13 9 10 8 8 12 7 12 12 10 7 9 11 9 12 9 14 14 14 13 12 9 8 8 8 9 8 8 8 9
8 5 5 2 3 9 11 14 12 9 9 10 10 11 8 9 1 2 4 4 6 3 4 4 4 1 3 12 13 18 14 11 17 14 13 13 10 16 16 11 16 17 18 15 10 10 10 7 10 12 13 14 13 12 12 13 12 7 12 12 13 6 11 8 6 7 11 9 8 9 12 7 10 9 17 17 15 14 13 10 7 8 8 7 7 7 7 8
6 3 3 3 4 9 12 13 9 9 9 12 10 10 4 7 6 5 1 2 4 1 4 5 5 5 4 5 16 14 14 12 15 12 12 12 7 14 16 15 13 17 17 14 8 9 9 6 8 12 9 14 13 12 13 14 15 13 11 13 11 8 3 8 5 8 11 7 9 8 9 7 5 9 16 17 15 15 14 12 10 8 8 8 7 7 7 8
3 3 0 4 7 9 12 9 8 10 10 9 10 9 7 6 5 3 3 5 1 5 7 9 8 7 5 6 13 16 13 13 14 11 11 14 10 9 11 12 13 18 15 14 9 9 6 9 9 12 13 13 13 12 8 18 15 13 13 13 15 13 11 12 9 1 5 8 8 10 8 7 4 1 13 17 16 14 13 15 12 10 9 8 7 8 8 8
2 3 3 5 9 13 11 9 7 7 8 9 8 8 6 4 5 2 1 2 6 6 6 10 13 12 10 10 7 13 10 15 15 11 10 11 11 5 13 11 14 17 13 10 10 10 4 8 10 12 12 14 6 4 2 4 9 13 13 13 15 11 11 12 9 9 7 4 3 8 6 4 5 6 8 16 15 14 15 15 13 11 10 9 8 9 9 10
3 2 4 6 10 11 7 7 7 7 9 6 1 5 3 3 5 1 5 7 6 6 7 9 10 8 9 9 9 11 14 9 14 11 10 11 10 2 12 12 8 14 15 11 12 6 1 5 12 14 10 8 6 4 3 2 7 12 13 12 15 14 13 10 9 10 8 6 7 4 5 5 4 6 11 11 12 13 12 13 16 11 10 9 9 9 9 9
3 2 3 5 7 4 7 8 8 8 8 5 5 3 2 4 3 5 7 6 4 4 8 7 8 11 9 8 8 11 15 5 3 3 5 6 6 3 5 8 12 11 14 10 8 10 4 8 11 11 9 9 7 6 7 7 9 10 9 3 4 8 12 6 3 10 8 11 11 8 9 5 7 8 11 14 15 14 13 13 13 12 10 9 8 8 8 9
4 1 3 5 5 4 6 3 4 5 8 7 4 7 6 5 5 9 7 8 8 11 9 9 10 6 7 8 11 10 15 7 7 7 6 6 3 3 4 7 11 11 6 3 3 9 3 2 8 15 14 14 14 14 14 11 13 6 3 6 2 10 13 10 7 7 6 7 7 9 3 8 9 10 12 13 15 14 12 12 12 10 10 9 8 8 8 8
3 2 3 5 4 4 6 5 5 5 5 6 3 6 6 7 5 6 9 12 13 14 13 12 12 12 12 9 10 11 11 12 12 7 13 9 6 5 3 9 7 4 8 5 5 7 2 3 7 2 11 11 8 5 6 8 10 11 7 8 7 3 2 6 6 7 8 8 9 6 11 14 12 12 13 12 13 14 13 12 12 11 10 9 9 8 8 8
4 1 5 6 5 6 5 5 5 5 4 4 3 3 7 8 5 6 10 6 12 17 10 9 9 6 8 12 11 13 16 12 10 11 8 10 6 6 7 8 6 9 11 7 3 5 4 4 6 8 13 9 4 6 3 6 10 10 12 8 6 4 1 8 7 8 6 9 8 8 19 18 15 14 13 13 12 12 11 12 12 10 9 9 9 9 9 9
2 1 4 1 3 4 7 6 7 5 1 5 4 1 4 7 8 6 7 15 3 5 4 4 8 12 12 13 14 7 15 12 8 5 9 9 11 11 10 7 5 5 7 7 2 5 5 3 4 8 12 9 8 8 9 12 11 9 10 9 7 4 3 8 4 5 7 6 4 14 14 15 15 13 13 12 11 11 11 11 10 11 10 10 10 10 9 9
3 4 4 2 4 1 5 2 8 7 6 7 3 4 4 6 10 11 6 1 8 7 10 3 7 8 10 12 14 8 13 10 4 7 8 10 10 12 8 9 6 8 8 7 4 2 3 4 6 8 12 10 9 8 9 14 13 13 11 10 8 8 9 9 8 5 5 8 12 16 15 16 12 13 13 12 11 13 11 10 10 11 10 10 10 10 9 9
0 2 0 3 6 4 4 4 5 7 6 6 3 5 4 6 8 7 3 3 3 3 4 5 6 6 10 10 12 9 7 4 10 4 6 12 7 4 9 5 9 7 8 7 5 1 2 4 10 7 9 10 8 8 9 10 12 15 12 11 10 10 12 10 10 12 16 15 16 20 20 13 8 12 13 12 11 11 11 11 11 10 10 9 10 10 9 9
3 4 3 4 5 3 3 4 5 7 4 5 5 3 3 4 7 2 1 2 1 5 5 8 7 7 8 11 11 7 5 5 8 10 10 9 9 3 2 5 9 10 10 6 3 3 4 5 6 2 5 4 5 8 10 13 15 17 13 10 8 6 7 5 4 4 2 11 14 14 12 8 9 12 13 12 12 12 12 11 10 9 9 9 10 9 9 10
3 3 3 4 4 2 4 4 3 4 3 4 4 1 1 3 5 3 0 6 8 6 3 4 6 6 10 13 11 8 6 11 12 11 9 10 11 7 9 8 5 10 7 5 3 5 6 10 5 4 5 4 6 6 10 12 11 9 7 7 7 8 9 9 8 5 7 12 10 6 6 11 14 13 15 12 12 12 11 10 10 10 8 9 10 9 10 9
Wind_Direction
340 341 342 334 334 332 331 330 326 323 326 325 318 325 318 316 314 317 318 320 317 317 322 320 321 322 327 322 322 324 321 304 300 282 258 246 317 121 167 280 169 192 216 202 153 159 164 173 177 166 186 189 188 216 160 205 181 198 212 226 220 235 208 167 198 178 61 28 39 30 24 2 78 114 89 182 121 110 117 101 100 86 75 73 93 112 123 137
335 337 337 337 332 332 330 331 329 328 324 316 312 319 320 317 315 309 314 318 316 315 320 320 317 323 322 319 323 331 316 295 288 280 259 154 201 176 159 160 169 179 209 194 176 177 166 176 175 176 184 201 144 206 156 185 194 204 213 223 237 207 138 38 37 26 302 36 353 17 23 357 43 313 98 229 140 146 124 107 114 101 97 106 117 121 131 141
334 334 334 335 333 333 331 329 319 327 327 322 320 314 323 315 310 308 309 308 313 313 315 321 318 318 322 321 323 325 299 299 275 263 288 177 212 186 166 164 173 182 200 191 199 193 187 176 168 182 190 207 180 180 194 169 202 216 235 216 233 248 137 203 303 332 313 344 346 356 8 341 38 321 343 241 146 167 139 132 147 146 137 136 138 138 141 145
335 332 333 334 332 330 331 327 327 320 324 318 317 315 310 310 305 311 309 310 311 312 316 319 318 317 317 317 329 313 294 281 263 239 86 163 218 199 178 173 172 186 208 227 213 214 206 167 172 192 181 228 172 215 188 169 210 179 228 228 229 182 231 206 225 249 344 336 336 334 333 319 32 354 281 137 139 163 118 143 151 149 153 146 147 142 143 149
332 333 331 329 329 325 322 324 324 326 314 309 309 312 307 304 306 305 312 310 311 309 315 318 317 318 316 315 314 294 286 286 236 88 71 37 234 175 180 176 172 190 206 209 219 221 198 181 179 193 200 208 185 197 213 176 223 183 225 235 258 206 246 163 170 97 325 328 303 317 323 23 331 220 269 221 232 130 96 112 95 122 155 149 148 143 146 153
331 331 332 331 328 327 322 323 320 315 314 310 304 308 305 307 304 305 303 307 308 304 310 316 314 314 314 324 299 274 258 232 66 104 63 58 58 155 176 177 178 197 199 199 202 193 196 187 186 189 200 218 191 207 196 209 192 228 212 238 237 239 253 109 190 115 296 300 303 313 6 318 305 64 308 222 24 63 32 27 142 133 146 137 137 140 150 161
325 328 329 327 328 330 335 325 314 309 303 297 303 301 298 301 308 302 303 306 302 304 305 313 313 309 337 294 277 262 233 281 154 105 115 45 89 163 174 174 177 197 194 193 195 190 194 185 193 191 200 212 206 215 200 198 190 232 238 194 227 237 236 236 256 261 263 280 290 321 318 288 288 155 92 168 57 16 15 311 143 123 131 132 137 149 157 164
321 320 323 324 323 324 328 322 314 308 308 312 301 301 301 302 303 298 304 310 308 302 309 304 311 314 350 301 255 219 228 244 249 77 331 7 260 149 166 172 179 190 193 196 188 193 187 190 195 192 213 209 187 208 187 197 194 220 239 202 226 219 231 239 241 243 257 266 275 292 282 273 251 33 209 119 99 59 95 165 134 125 132 133 140 150 163 160
322 323 324 324 320 320 320 320 318 314 302 300 306 300 298 296 295 305 300 302 305 307 302 306 305 318 221 280 276 265 241 239 284 323 317 312 220 164 160 166 185 186 196 198 194 192 190 193 201 196 206 210 194 214 187 203 204 222 231 229 224 223 219 212 221 230 236 265 260 261 255 204 149 192 189 113 128 105 136 147 131 125 137 137 144 156 159 151
322 321 318 317 317 318 316 314 314 315 316 303 294 294 301 298 296 297 302 295 298 300 303 301 302 321 283 282 247 246 219 56 7 292 355 307 181 168 190 181 180 191 194 197 195 198 200 193 208 190 261 232 192 215 185 209 262 187 221 228 231 227 226 211 235 231 240 251 252 252 241 152 152 227 130 159 132 150 166 140 126 138 139 142 147 148 145 141
321 316 319 314 315 317 313 308 306 303 307 308 301 297 302 310 297 293 295 300 294 295 299 298 304 288 266 245 241 238 85 248 27 54 20 163 168 190 196 195 189 192 196 193 200 200 204 215 206 163 235 219 174 211 205 208 236 230 217 222 232 238 237 237 236 242 238 232 235 241 223 185 166 233 118 139 148 168 161 144 141 148 139 140 143 137 130 134
319 317 315 312 310 310 312 309 302 302 304 309 308 301 296 298 302 290 289 291 291 291 296 294 282 274 266 252 242 237 65 67 85 63 54 278 163 176 236 230 199 204 195 191 201 200 209 224 201 185 200 140 207 167 213 209 212 185 197 212 212 213 223 216 225 218 208 218 210 229 198 178 191 121 82 104 137 164 162 138 146 137 135 133 135 130 136 133
315 316 312 311 308 315 314 310 307 305 311 309 307 302 298 299 298 294 296 287 283 282 287 293 280 260 269 253 236 242 263 276 275 292 298 266 15 188 233 216 212 213 213 206 198 202 202 213 205 208 224 209 175 197 100 191 202 218 211 247 173 196 212 198 206 202 205 214 243 225 195 187 131 79 84 119 151 181 174 146 145 135 136 133 125 126 125 126
316 312 314 312 313 314 313 308 307 307 308 308 308 307 306 303 293 287 285 282 284 290 282 270 264 245 240 256 263 216 241 262 275 269 255 239 251 224 187 187 197 209 217 230 211 190 194 213 217 223 212 235 186 108 190 181 183 203 202 230 237 190 200 170 186 183 210 144 222 224 236 130 103 78 81 139 179 179 177 135 140 123 131 130 120 123 134 142
312 314 314 316 312 311 310 308 307 308 306 308 313 310 303 294 293 288 283 281 273 273 277 279 249 230 229 261 256 255 250 259 260 245 241 226 221 232 225 167 179 196 193 211 182 175 190 214 219 213 208 214 80 184 167 188 187 203 186 206 220 219 151 152 176 179 201 161 219 217 241 101 83 68 68 149 167 183 153 138 135 132 132 126 123 115 130 144
311 314 314 311 310 312 308 312 312 311 312 320 318 308 307 295 286 280 279 281 294 275 248 241 213 232 298 278 256 107 181 193 229 238 228 219 207 220 167 170 159 165 173 165 189 168 195 199 209 199 188 176 204 196 187 176 193 199 210 191 193 212 151 159 171 188 246 167 189 216 229 135 86 62 72 120 158 163 155 139 125 136 140 146 139 124 137 152
312 312 310 306 308 306 310 310 312 309 314 314 316 298 299 295 283 277 269 254 229 225 218 218 183 213 246 78 165 227 214 213 166 167 195 204 204 198 153 162 170 159 169 139 166 177 175 206 192 211 223 197 193 200 195 195 184 196 206 204 188 202 156 174 146 187 182 200 183 199 256 69 83 77 76 93 156 181 154 132 134 145 157 146 145 135 145 157
306 307 304 303 305 307 305 309 307 313 314 328 313 300 291 299 293 269 198 196 194 195 203 250 231 217 247 250 252 179 180 174 191 210 179 187 200 180 173 171 168 165 163 163 162 189 173 197 183 200 187 205 194 198 206 196 190 184 190 195 174 200 191 150 169 158 185 197 192 182 110 106 83 79 65 54 88 153 123 142 142 149 152 155 143 139 136 150
306 304 304 303 305 304 308 308 310 319 322 319 280 264 265 266 248 172 152 163 159 160 197 192 190 196 9 147 222 248 213 92 124 184 168 172 182 182 178 168 167 163 173 182 165 193 173 196 193 205 196 196 195 199 202 206 187 183 187 181 180 183 180 180 136 135 188 175 195 168 157 108 86 69 58 56 52 70 92 104 141 141 148 146 147 134 146 156
307 306 302 305 308 307 308 305 303 312 336 301 299 291 229 224 177 174 174 191 212 202 269 185 198 233 337 171 107 309 249 224 220 205 169 168 167 173 171 167 162 183 174 192 160 201 169 196 195 202 196 193 192 200 204 203 179 167 187 193 176 181 177 139 124 128 187 179 161 157 112 100 85 72 68 68 79 76 76 86 98 133 147 150 137 140 153 161
306 302 302 304 303 303 300 306 307 310 318 298 292 272 238 233 234 207 172 221 230 253 268 240 202 229 247 65 72 24 114 186 224 165 180 167 172 162 168 174 169 188 191 185 162 170 188 208 203 201 198 190 189 192 194 174 192 181 186 190 179 183 171 166 143 143 132 195 138 142 121 88 85 83 72 80 79 71 71 83 87 94 109 110 108 122 122 119
311 307 302 305 308 308 309 309 309 326 284 280 269 255 274 304 360 11 310 253 218 226 241 244 241 248 257 257 260 341 299 280 198 190 159 180 171 185 161 188 179 188 180 183 165 167 200 210 199 199 198 187 186 190 180 175 186 187 195 189 175 186 130 103 121 140 157 195 153 158 136 98 87 83 79 74 80 81 80 75 68 72 88 101 76 70 62 172
312 304 303 309 310 306 304 300 324 317 287 262 248 248 254 310 350 342 302 277 283 235 222 226 230 237 242 239 245 220 249 230 200 177 163 191 175 204 161 189 184 183 179 186 184 180 198 209 200 193 191 179 178 184 184 183 196 192 193 190 189 160 161 155 125 148 153 209 156 162 141 107 101 93 83 73 86 94 92 90 81 78 87 91 88 78 87 60
306 308 308 310 312 310 311 328 311 280 257 250 253 248 255 285 319 319 275 261 291 225 204 216 218 226 230 223 193 203 223 222 238 177 163 189 184 182 173 191 182 188 184 188 195 195 202 190 191 169 171 179 174 183 191 191 188 197 201 186 195 166 185 173 140 142 147 157 169 153 150 139 142 122 110 97 111 109 103 103 93 88 86 92 106 104 68 71
301 306 309 310 312 314 318 324 282 256 284 264 254 254 247 261 305 306 291 265 230 241 200 219 208 227 224 203 165 191 211 242 227 202 169 193 184 178 191 182 194 191 189 189 203 206 203 195 165 179 186 189 185 184 193 190 192 183 208 208 181 174 149 108 135 143 160 160 181 176 166 176 132 108 108 134 123 99 97 99 89 85 86 84 76 74 87 86
302 308 311 311 310 318 323 287 255 311 266 259 269 145 192 183 276 314 264 266 273 160 145 204 158 215 169 185 170 205 193 225 209 216 172 200 196 187 168 193 200 186 189 183 201 209 201 152 179 184 185 187 188 192 189 195 197 189 185 221 178 179 154 149 156 172 172 181 180 230 231 158 163 134 136 132 117 104 98 95 89 79 78 79 76 74 64 72
307 308 312 313 309 322 293 267 50 284 263 183 161 162 210 322 303 260 244 219 253 164 169 91 179 131 182 171 175 183 198 202 176 191 187 193 197 203 190 178 181 221 179 179 198 206 190 164 187 186 185 190 188 194 188 196 197 197 167 191 189 171 158 169 178 188 185 115 152 198 248 181 170 143 137 130 115 108 102 99 91 88 79 75 74 69 65 61
305 308 306 308 307 279 280 293 298 271 272 27 262 322 253 297 319 220 245 249 235 118 184 171 246 134 213 160 178 183 229 131 167 178 192 175 207 177 218 180 188 183 167 188 200 160 173 178 184 184 188 190 196 196 173 196 208 170 156 186 192 190 179 174 189 200 182 173 183 201 222 189 176 139 148 142 123 114 108 97 85 74 75 71 73 76 74 69
301 298 301 301 314 298 281 268 273 266 272 231 250 276 316 303 261 236 246 252 121 257 36 148 136 164 169 166 183 196 190 169 191 155 176 174 204 194 207 189 188 171 184 195 203 141 186 184 185 188 192 195 191 190 174 188 203 98 144 179 195 198 212 196 195 197 168 203 193 194 197 206 158 148 158 161 126 122 121 107 91 81 75 69 60 59 61 63
292 292 293 305 298 262 249 245 250 260 265 255 269 287 291 258 200 216 210 237 27 140 216 101 195 170 166 167 184 197 199 188 191 147 169 177 184 224 224 190 189 178 184 195 229 167 177 186 185 197 197 195 190 178 174 185 206 131 159 171 179 199 191 195 227 187 189 205 208 185 188 231 175 164 161 166 137 128 129 116 111 95 85 72 62 61 60 58
294 295 295 300 276 279 296 275 254 241 239 248 281 282 263 206 228 235 222 105 167 351 196 159 166 156 172 173 176 188 208 168 152 158 161 174 174 194 164 180 189 182 180 187 219 173 164 177 191 200 203 199 176 155 174 188 164 177 180 187 180 183 191 185 198 202 202 208 185 160 188 226 194 157 134 112 142 127 134 130 109 98 87 78 68 64 64 61
296 298 293 279 277 281 252 257 61 130 137 289 293 268 201 206 220 229 209 122 251 309 337 132 155 180 181 181 176 177 190 170 165 171 166 174 173 185 183 184 179 178 185 184 192 172 190 186 187 183 210 206 173 177 163 175 187 200 184 185 188 177 179 196 185 200 204 212 150 170 178 197 171 115 127 147 139 106 108 109 110 101 90 81 70 65 61 57
293 288 286 272 270 254 248 252 250 250 289 299 285 241 210 216 221 217 248 197 177 317 97 311 149 178 190 187 183 175 184 178 168 175 170 173 179 187 183 195 181 195 180 178 182 180 182 187 185 185 191 204 197 191 169 192 191 200 192 186 186 182 185 196 196 196 195 88 127 165 189 204 113 112 126 119 109 111 107 96 92 91 87 80 75 67 62 55
297 290 280 274 268 256 249 243 239 246 255 272 255 217 231 223 224 304 240 179 47 243 284 280 329 207 192 198 172 179 180 179 171 172 178 174 185 181 181 194 184 189 201 172 196 181 177 189 191 188 194 185 208 210 182 192 184 200 203 193 198 195 182 187 194 192 195 168 139 134 194 169 177 152 116 117 116 114 103 98 92 88 88 84 79 72 64 59
288 283 276 270 256 250 241 236 236 228 226 237 232 215 200 216 234 238 208 74 35 315 257 277 281 241 179 209 173 182 194 165 183 168 182 180 183 188 180 185 184 196 182 175 189 186 197 199 177 194 193 178 201 205 188 187 187 199 210 205 203 210 173 204 201 213 183 136 147 144 136 60 114 106 112 122 122 106 102 100 100 93 94 94 77 65 59 57
286 281 279 268 257 245 219 213 207 194 200 205 213 205 216 211 210 215 79 81 111 303 308 281 223 203 175 190 168 180 175 202 178 182 181 184 184 189 179 181 183 192 183 192 164 184 187 195 161 176 209 185 198 196 194 193 193 179 206 207 204 218 193 118 94 56 98 176 135 142 139 109 122 133 141 144 138 124 115 110 103 95 95 86 74 66 61 61
294 301 276 258 243 212 192 185 178 180 195 223 216 210 219 223 249 3 75 60 100 296 288 233 172 206 173 173 176 179 165 195 174 184 180 184 185 190 182 180 188 189 195 195 166 217 178 174 154 170 180 193 196 195 191 194 216 156 204 193 103 345 195 168 184 151 194 193 155 192 161 154 172 160 158 159 146 141 144 117 110 103 100 86 70 64 64 62
303 289 280 265 250 203 162 170 168 177 202 220 221 237 226 242 187 349 106 127 112 8 307 289 116 270 177 178 173 174 170 189 172 190 180 185 188 181 183 180 181 193 195 199 199 186 211 170 169 183 180 155 168 189 195 195 248 205 200 170 183 162 189 193 201 187 189 194 141 189 169 167 194 142 163 166 161 156 157 139 127 112 88 82 82 74 67 62
286 273 285 128 122 161 165 165 177 180 207 214 221 225 224 254 225 195 118 87 98 14 284 267 306 252 272 186 167 175 175 189 171 188 182 173 191 180 190 178 173 190 196 189 204 171 213 207 159 178 191 161 181 189 190 188 193 249 205 170 208 205 199 179 206 190 212 188 149 172 180 187 203 152 174 165 158 154 152 148 129 105 98 96 85 77 68 62
283 279 220 97 174 155 158 167 184 204 216 216 212 229 223 237 228 154 120 91 110 151 261 285 284 288 290 236 171 175 182 181 180 181 193 163 180 158 194 183 180 187 188 192 202 172 194 241 169 165 165 162 188 191 196 185 180 188 197 188 182 206 187 198 186 230 205 189 193 166 187 190 143 145 165 157 156 156 153 141 131 120 108 100 95 89 77 66
287 276 122 127 143 154 157 183 200 200 208 223 237 243 215 236 201 190 94 92 128 219 265 286 295 286 316 310 177 176 176 180 186 185 190 163 186 164 196 179 182 181 194 188 210 186 199 196 176 148 181 189 191 183 213 187 185 191 194 196 190 180 176 177 176 173 227 189 193 185 190 130 73 61 166 153 158 155 148 140 133 126 117 107 97 87 80 72
265 232 107 141 155 164 178 178 205 201 221 215 221 216 224 208 244 206 313 270 240 259 246 278 272 272 277 263 258 170 182 174 189 187 179 176 180 219 165 197 185 178 183 184 199 171 246 203 175 171 178 192 120 55 25 352 200 193 197 194 190 191 199 194 182 182 198 217 171 189 199 140 45 341 149 150 154 147 141 138 127 121 114 110 102 90 78 72
209 287 66 154 162 187 219 218 192 206 221 226 230 237 216 199 238 190 237 217 250 247 264 249 258 275 248 252 250 197 186 170 177 182 170 183 138 62 143 167 178 184 188 185 193 127 111 201 172 178 153 82 104 104 96 209 197 195 202 202 181 195 196 199 203 160 194 158 200 170 218 128 106 82 106 115 114 127 131 133 126 121 117 110 100 92 87 85
306 293 113 142 177 246 235 200 195 207 214 199 226 239 189 259 207 219 224 230 209 226 232 244 261 232 259 234 242 201 170 135 56 141 174 175 136 105 155 159 181 189 198 166 191 154 197 189 182 161 169 168 138 149 173 185 207 205 179 166 195 188 193 196 181 165 202 188 206 192 206 155 134 123 114 121 124 123 123 123 119 119 117 109 106 97 89 86
287 259 75 158 199 270 223 247 254 207 206 212 205 221 215 218 228 238 242 246 227 244 256 265 256 300 272 247 228 206 173 159 140 186 176 167 134 155 147 176 187 202 182 96 233 156 224 143 211 185 178 181 178 181 181 178 192 143 101 141 139 197 172 175 187 193 199 175 211 216 113 93 125 130 126 126 121 116 118 115 110 113 116 115 108 101 95 86
242 161 128 171 221 238 260 268 278 264 213 198 216 237 232 233 196 236 238 253 244 243 245 268 283 273 264 239 206 187 149 146 158 159 162 160 178 127 142 166 172 195 103 76 161 150 90 73 29 293 201 188 165 134 33 151 155 175 149 155 133 72 57 219 194 189 203 163 199 212 137 140 142 145 136 135 129 127 128 119 115 115 110 106 104 98 93 89
318 225 158 172 189 231 236 220 236 243 224 190 218 193 213 218 237 264 214 241 226 234 244 249 259 262 231 203 185 180 171 180 155 170 146 140 118 107 134 153 135 107 114 108 83 120 144 95 39 59 65 62 55 81 77 167 147 137 145 127 117 113 127 190 197 202 137 161 191 108 138 145 162 151 143 136 130 125 123 119 117 116 113 109 107 102 98 94
228 130 227 98 233 179 196 220 227 226 206 193 233 288 217 204 208 236 215 224 235 172 185 239 237 245 245 188 168 165 168 168 154 126 128 131 124 131 125 138 152 138 169 136 200 206 156 113 85 84 78 73 62 78 93 90 89 99 107 120 117 117 164 168 90 36 172 216 189 137 143 137 147 146 137 132 133 124 119 117 113 113 112 110 108 100 93 90
275 312 276 315 249 60 213 39 194 206 208 215 243 233 222 222 235 228 248 313 183 192 214 259 263 238 218 182 178 150 156 151 135 141 142 145 146 150 132 126 112 156 158 134 108 48 108 75 115 102 96 75 65 79 97 104 106 90 84 85 95 95 78 88 83 63 75 87 107 124 115 114 130 132 125 119 118 115 114 115 114 111 110 109 105 100 95 86
238 300 41 285 269 282 222 206 212 200 209 195 232 198 225 232 245 256 227 243 159 152 224 233 269 195 176 177 162 148 129 157 139 139 151 138 138 184 139 152 140 156 164 139 132 88 280 126 150 119 91 73 72 86 95 106 107 94 78 77 85 86 82 74 89 85 88 89 98 108 110 99 89 107 108 111 111 112 113 114 111 107 110 111 107 104 96 87
301 279 288 303 251 244 210 212 204 201 194 185 230 167 219 226 246 283 41 18 95 135 166 195 278 86 104 105 96 74 41 65 131 150 155 153 153 139 172 133 149 146 151 128 136 110 107 133 194 216 114 94 87 95 105 100 94 87 72 59 57 79 84 58 65 18 17 133 130 125 121 127 130 121 116 115 118 116 115 112 109 109 112 115 107 106 100 91
297 282 292 286 264 216 241 179 235 185 203 173 219 74 260 170 250 18 263 83 73 72 110 277 319 73 57 76 63 60 63 88 86 79 74 69 76 92 81 83 150 154 144 113 130 144 130 144 175 200 127 124 133 137 125 132 122 103 53 45 59 87 90 89 68 72 92 123 133 164 122 131 134 131 121 117 116 112 106 106 109 110 111 107 104 104 100 94